Meteo orario Zagorode

Oggi, 26 Novenbre, Giovedi

Tempo Temperatura Precipitazioni Vento Pressione Umidità
00:00 0°C° 0 mm 1 m/s 751 mm Hg 91%
01:00 0°C° 0 mm 1 m/s 751 mm Hg 92%
02:00 -1°C° 0 mm 1 m/s 751 mm Hg 94%
03:00 0°C° 0 mm 1 m/s 751 mm Hg 91%
04:00 -2°C° 0 mm 2 m/s 750 mm Hg 87%
05:00 -2°C° 0 mm 2 m/s 749 mm Hg 83%
06:00 -2°C° 0 mm 2 m/s 749 mm Hg 81%
07:00 -2°C° 0 mm 3 m/s 749 mm Hg 80%
08:00 -2°C° 0 mm 3 m/s 749 mm Hg 79%
09:00 -2°C° 0.4 mm 3 m/s 749 mm Hg 84%
10:00 -3°C° 0.4 mm 4 m/s 748 mm Hg 88%
11:00 -3°C° 0.4 mm 4 m/s 747 mm Hg 93%
12:00 -3°C° 0.6 mm 4 m/s 747 mm Hg 93%
13:00 -2°C° 0.6 mm 4 m/s 747 mm Hg 93%
14:00 -2°C° 0.6 mm 4 m/s 746 mm Hg 93%
15:00 0°C° 1.1 mm 3 m/s 746 mm Hg 95%
16:00 +1°C° 1.1 mm 3 m/s 745 mm Hg 96%
17:00 +1°C° 1.1 mm 3 m/s 744 mm Hg 97%
18:00 +1°C° 0.4 mm 3 m/s 744 mm Hg 96%
19:00 +2°C° 0.4 mm 3 m/s 744 mm Hg 95%
20:00 +2°C° 0.4 mm 3 m/s 743 mm Hg 95%
21:00 +2°C° 0.4 mm 3 m/s 743 mm Hg 94%
22:00 +1°C° 0.4 mm 3 m/s 742 mm Hg 94%
23:00 +1°C° 0.4 mm 3 m/s 742 mm Hg 94%

Domani, 27 Novenbre, Venerdi

Tempo Temperatura Precipitazioni Vento Pressione Umidità
00:00 +1°C° 0.5 mm 3 m/s 742 mm Hg 95%
01:00 0°C° 0.5 mm 3 m/s 742 mm Hg 95%
02:00 0°C° 0.5 mm 3 m/s 742 mm Hg 96%
03:00 0°C° 0.8 mm 3 m/s 741 mm Hg 96%
04:00 +1°C° 0.8 mm 2 m/s 741 mm Hg 97%
05:00 +1°C° 0.8 mm 2 m/s 741 mm Hg 98%
06:00 +1°C° 0.4 mm 2 m/s 741 mm Hg 98%
07:00 +1°C° 0.4 mm 2 m/s 741 mm Hg 98%
08:00 +2°C° 0.4 mm 1 m/s 741 mm Hg 98%
09:00 +3°C° 0.2 mm 1 m/s 742 mm Hg 98%
10:00 +3°C° 0.2 mm 1 m/s 742 mm Hg 98%
11:00 +2°C° 0.2 mm 0 m/s 742 mm Hg 98%
12:00 +2°C° 0.2 mm 0 m/s 742 mm Hg 98%
13:00 +3°C° 0.2 mm 1 m/s 743 mm Hg 98%
14:00 +3°C° 0.2 mm 1 m/s 743 mm Hg 98%
15:00 +3°C° 0.4 mm 1 m/s 743 mm Hg 98%
16:00 +3°C° 0.4 mm 1 m/s 743 mm Hg 98%
17:00 +3°C° 0.4 mm 1 m/s 744 mm Hg 98%
18:00 +2°C° 0.4 mm 2 m/s 744 mm Hg 98%
19:00 +2°C° 0.4 mm 2 m/s 745 mm Hg 98%
20:00 +2°C° 0.4 mm 2 m/s 746 mm Hg 97%
21:00 +1°C° 0.4 mm 3 m/s 746 mm Hg 97%
22:00 0°C° 0.4 mm 3 m/s 746 mm Hg 97%
23:00 0°C° 0.4 mm 3 m/s 747 mm Hg 97%

Dopodomani, 28 Novenbre, Sabato

Tempo Temperatura Precipitazioni Vento Pressione Umidità
00:00 0°C° 0.2 mm 3 m/s 747 mm Hg 97%
01:00 0°C° 0.2 mm 3 m/s 748 mm Hg 97%
02:00 -1°C° 0.2 mm 3 m/s 748 mm Hg 97%
03:00 -1°C° 0.4 mm 3 m/s 749 mm Hg 97%
04:00 -2°C° 0.4 mm 4 m/s 749 mm Hg 96%
05:00 -2°C° 0.4 mm 4 m/s 750 mm Hg 96%
06:00 -2°C° 0.3 mm 4 m/s 750 mm Hg 96%
07:00 -3°C° 0.3 mm 4 m/s 751 mm Hg 96%
08:00 -3°C° 0.3 mm 4 m/s 751 mm Hg 95%
09:00 -3°C° 0.2 mm 4 m/s 752 mm Hg 95%
10:00 -3°C° 0.2 mm 4 m/s 752 mm Hg 94%
11:00 -3°C° 0.2 mm 4 m/s 753 mm Hg 93%
12:00 -3°C° 0.1 mm 4 m/s 753 mm Hg 93%
13:00 -2°C° 0.1 mm 3 m/s 754 mm Hg 93%
14:00 -2°C° 0.1 mm 3 m/s 754 mm Hg 93%
15:00 -2°C° 0.1 mm 3 m/s 754 mm Hg 93%
16:00 -4°C° 0.1 mm 3 m/s 755 mm Hg 94%
17:00 -4°C° 0.1 mm 3 m/s 755 mm Hg 94%
18:00 -4°C° 0.1 mm 3 m/s 755 mm Hg 94%
19:00 -4°C° 0.1 mm 3 m/s 756 mm Hg 94%
20:00 -4°C° 0.1 mm 3 m/s 756 mm Hg 94%
21:00 -4°C° 0.1 mm 3 m/s 756 mm Hg 94%
22:00 -4°C° 0.1 mm 3 m/s 757 mm Hg 94%
23:00 -5°C° 0.1 mm 3 m/s 757 mm Hg 94%

29 Novenbre, Domenica

Tempo Temperatura Precipitazioni Vento Pressione Umidità
00:00 -4°C° 0.1 mm 2 m/s 757 mm Hg 94%
01:00 -4°C° 0.1 mm 2 m/s 758 mm Hg 94%
02:00 -4°C° 0.1 mm 2 m/s 758 mm Hg 94%
03:00 -4°C° 0.1 mm 2 m/s 758 mm Hg 94%
04:00 -4°C° 0.1 mm 2 m/s 758 mm Hg 94%
05:00 -4°C° 0.1 mm 2 m/s 758 mm Hg 94%
06:00 -4°C° 0.1 mm 2 m/s 759 mm Hg 94%
07:00 -4°C° 0.1 mm 2 m/s 759 mm Hg 93%
08:00 -4°C° 0.1 mm 2 m/s 759 mm Hg 93%
09:00 -3°C° 0 mm 2 m/s 759 mm Hg 93%
10:00 -3°C° 0 mm 2 m/s 759 mm Hg 92%
11:00 -3°C° 0 mm 2 m/s 759 mm Hg 92%
12:00 -2°C° 0 mm 3 m/s 759 mm Hg 92%
13:00 -2°C° 0 mm 3 m/s 759 mm Hg 93%
14:00 -1°C° 0 mm 3 m/s 759 mm Hg 93%
15:00 -1°C° 0.1 mm 3 m/s 759 mm Hg 94%
16:00 0°C° 0.1 mm 3 m/s 758 mm Hg 95%
17:00 0°C° 0.1 mm 3 m/s 758 mm Hg 96%
18:00 -1°C° 0 mm 4 m/s 758 mm Hg 95%
19:00 -1°C° 0 mm 4 m/s 758 mm Hg 93%
20:00 -1°C° 0 mm 4 m/s 758 mm Hg 91%
21:00 -1°C° 0 mm 4 m/s 758 mm Hg 92%
22:00 -1°C° 0 mm 4 m/s 758 mm Hg 92%
23:00 0°C° 0 mm 4 m/s 757 mm Hg 93%

30 Novenbre, Lunedi

Tempo Temperatura Precipitazioni Vento Pressione Umidità
00:00 0°C° 0 mm 4 m/s 757 mm Hg 93%
01:00 0°C° 0 mm 4 m/s 757 mm Hg 93%
02:00 0°C° 0 mm 4 m/s 757 mm Hg 93%
03:00 0°C° 0 mm 4 m/s 757 mm Hg 94%
04:00 0°C° 0 mm 4 m/s 756 mm Hg 94%
05:00 0°C° 0 mm 5 m/s 756 mm Hg 95%
06:00 0°C° 0 mm 5 m/s 756 mm Hg 95%
07:00 0°C° 0 mm 5 m/s 756 mm Hg 95%
08:00 0°C° 0 mm 5 m/s 755 mm Hg 96%
09:00 0°C° 0.1 mm 5 m/s 755 mm Hg 96%
10:00 0°C° 0.1 mm 5 m/s 755 mm Hg 96%
11:00 0°C° 0.1 mm 5 m/s 755 mm Hg 96%
12:00 0°C° 0.1 mm 5 m/s 755 mm Hg 96%
13:00 +1°C° 0.1 mm 4 m/s 755 mm Hg 96%
14:00 +1°C° 0.1 mm 4 m/s 755 mm Hg 96%
15:00 +1°C° 0.1 mm 4 m/s 755 mm Hg 95%
16:00 0°C° 0.1 mm 4 m/s 755 mm Hg 93%
17:00 +1°C° 0.1 mm 3 m/s 755 mm Hg 92%
18:00 0°C° 0 mm 3 m/s 755 mm Hg 91%
19:00 0°C° 0 mm 3 m/s 755 mm Hg 89%
20:00 -2°C° 0 mm 4 m/s 755 mm Hg 88%
21:00 -2°C° 0 mm 4 m/s 756 mm Hg 86%
22:00 -2°C° 0 mm 4 m/s 756 mm Hg 84%
23:00 -2°C° 0 mm 4 m/s 756 mm Hg 82%

1 Dicembre, Martedi

Tempo Temperatura Precipitazioni Vento Pressione Umidità
00:00 -2°C° 0 mm 4 m/s 756 mm Hg 83%
01:00 -3°C° 0 mm 4 m/s 757 mm Hg 84%
02:00 -3°C° 0 mm 4 m/s 757 mm Hg 85%
03:00 -3°C° 0 mm 4 m/s 757 mm Hg 87%
04:00 -2°C° 0 mm 3 m/s 758 mm Hg 88%
05:00 -4°C° 0 mm 3 m/s 758 mm Hg 89%
06:00 -4°C° 0 mm 3 m/s 758 mm Hg 90%
07:00 -4°C° 0 mm 3 m/s 758 mm Hg 91%
08:00 -4°C° 0 mm 3 m/s 758 mm Hg 91%
09:00 -2°C° 0 mm 3 m/s 759 mm Hg 90%
10:00 -2°C° 0 mm 3 m/s 759 mm Hg 88%
11:00 -1°C° 0 mm 3 m/s 759 mm Hg 87%
12:00 -1°C° 0 mm 3 m/s 759 mm Hg 86%
13:00 -1°C° 0 mm 3 m/s 759 mm Hg 85%
14:00 -1°C° 0 mm 3 m/s 759 mm Hg 84%
15:00 -1°C° 0 mm 3 m/s 759 mm Hg 84%
16:00 -1°C° 0 mm 3 m/s 759 mm Hg 85%
17:00 -2°C° 0 mm 3 m/s 759 mm Hg 85%
18:00 -2°C° 0 mm 3 m/s 759 mm Hg 84%
19:00 -2°C° 0 mm 3 m/s 759 mm Hg 84%
20:00 -2°C° 0 mm 3 m/s 759 mm Hg 84%
21:00 -2°C° 0 mm 3 m/s 759 mm Hg 86%
22:00 -4°C° 0 mm 3 m/s 759 mm Hg 88%
23:00 -4°C° 0 mm 3 m/s 759 mm Hg 89%
Mostrare altro

Abbiamo bisogno del tuo consenso

Meteoprog e i nostri fornitori di servizi possono memorizzare e accedere a dati personali come cookie, identificatori di dispositivi o altre tecnologie simili sul tuo dispositivo e possono elaborare tali dati per personalizzare i contenuti e gli annunci, nonché fornire funzionalità dei social media e analizzarne il traffico.

  • Archiviare e/o accedere alle informazioni sul tuo dispositivo

    Cookie, identificatori di dispositivi o altre informazioni possono essere memorizzati o resi accessibili sul tuo dispositivo per le finalità sopra indicate.

  • Annunci e contenuti personalizzati, misurazione di annunci e contenuti, approfondimenti sul pubblico e sviluppo di prodotti

    Gli annunci e i contenuti possono essere personalizzati in base a un profilo. È possibile aggiungere più dati per personalizzare meglio annunci e contenuti. È possibile misurare il rendimento degli annunci e dei contenuti. È possibile ricavare informazioni sul pubblico che ha visto gli annunci e i contenuti. Tali dati possono essere utilizzati per sviluppare o migliorare l'esperienza, i sistemi e il software dell'utente.

Cliccando su “Accetto”, acconsenti all'uso di cookie, identificatori di dispositivo, web beacon o altre tecnologie simili. Puoi modificare le impostazioni nel browser del tuo dispositivo.

Per determinati scopi, è possibile fare affidamento su interessi legali, piuttosto che sul consenso. Puoi approfondire questo argomento consultando la nostra Informativa sulla privacy e sui cookie.